Location: Caltech
(34.1382°N, 118.1253°W)
Time: 19:53:36
(UTC-08:00)

SL-16 R/B - Visible Passes

Search period start: 23 February 2017 00:00
Search period end: 05 March 2017 00:00
Orbit: 843 x 846 km, 71.0° (Epoch: 23 February)

Date Brightness Start Highest point End Pass type
(mag) Time Alt. Az. Time Alt. Az. Time Alt. Az.
23 Feb 4.9 19:41:00 10° WNW 19:44:40 18° W 19:48:18 10° SW visible
24 Feb 4.9 19:26:38 10° WNW 19:30:26 19° W 19:34:12 10° SW visible
25 Feb 4.9 19:12:17 10° NW 19:16:12 19° W 19:20:06 10° SW visible
26 Feb 5.0 18:57:56 10° NW 19:01:58 20° W 19:05:59 10° SW visible
27 Feb 5.0 18:43:35 10° NW 18:47:44 21° W 18:51:52 10° SSW visible
28 Feb 5.0 18:29:15 10° NW 18:33:30 22° W 18:37:44 10° SSW visible
01 Mar 5.3 05:50:07 10° SE 05:53:52 18° E 05:57:38 10° ENE visible
01 Mar 5.0 18:14:54 10° NW 18:19:16 23° W 18:23:36 10° SSW visible
02 Mar 5.3 05:36:02 10° SE 05:39:39 18° E 05:43:15 10° ENE visible
03 Mar 5.2 05:21:57 10° SE 05:25:25 17° E 05:28:53 10° ENE visible
04 Mar 5.2 05:07:53 10° SE 05:11:11 16° E 05:14:29 10° ENE visible
